CARTOSAT-2F (43111 NORAD) Tracking and Keplerian Element Data

This shows tracking and keplerian element data for the satellite.

Feedback or suggestion? Click here.




ElementValue
Catalog43111
NameCARTOSAT-2F
Epoch Orbit26098
Epoch Day270.12177348
Epoch Year2022
RAAN329.0827
Inclination97.4395
Eccentricity0.0004688
Argument of Perigee49.1544
Mean Anonmoly34.4059
Mean Motion15.19289034
Decay Rate3.142E-05
L11 43111U 18004A 22270.12177348 .00003142 00000+0 15214-3 0 9994
L22 43111 97.4395 329.0827 0004688 49.1544 34.4059 15.19289034260985

Live tracking and technical data element details for CARTOSAT-2F (NORAD 43111). CARTOSAT-2F can be tracked NOW for your location showing map with azimuth and elevation plus other details from your city location.

Track the satellite on the map from your city or location and see movement details for azimuth, elevation, latitude, longitude, range, height, and movement on the map or in text.







IsCatalogInMostPopularTable: catalog: 43111, numindb: 623
Update: records affected: 1



GetName: 43111 CARTOSAT-2F

Hit Count: updated at: Thu, 29 Sep 2022 12:07:22 GMT